Barnwell, SC

3:13 PM EDT on April 20, 2018 (GMT -0400)
Barnwell County

Weather History for KBNL - April, 2013

Change the Weather History Date:

Wednesday, April 10, 2013

  Actual Average (KOGB) Record (KOGB)
Temperature  
Mean Temperature 70 °F 62 °F  
Max Temperature 84 °F 75 °F 90 °F (2001)
Min Temperature 55 °F 49 °F 31 °F (1972)
Degree Days  
Heating Degree Days 0 5  
Month to date heating degree days 52  
Since 1 July heating degree days 2261  
Cooling Degree Days 4 2  
Month to date cooling degree days 15  
Year to date cooling degree days 35  
Growing Degree Days 20 (Base 50)    
Moisture  
Dew Point 60 °F    
Average Humidity 72    
Maximum Humidity 100    
Minimum Humidity 37    
Precipitation  
Precipitation 0.00 in 0.10 in 1.42 in (1989)
Month to date precipitation 1.09  
Year to date precipitation 12.64  
Sea Level Pressure  
Sea Level Pressure 30.11 in    
Wind  
Wind Speed 4 mph (SSE)    
Max Wind Speed 13 mph    
Max Gust Speed 18 mph    
Visibility 9 miles    
Events Fog    
T = Trace of Precipitation, MM = Missing Value Source: NWS Daily Summary

Daily Weather History Graph

Daily Weather History Graph

Search for Another Location

Airport or City:

Astronomy

Apr. 10, 2013 Rise Set
Actual Time 7:01 AM EDT 7:52 PM EDT
Civil Twilight 6:36 AM EDT 8:17 PM EDT
Nautical Twilight 6:06 AM EDT 8:47 PM EDT
Astronomical Twilight 5:35 AM EDT 9:18 PM EDT
Moon 6:58 AM EDT (4/10) 8:23 PM EDT (4/10)
Length of Visible Light 13h 41m
Length of Day
12h 51m
New Moon, 0% of the Moon is Illuminated
Apr 10
New Moon
Apr 18
First Quarter
Apr 25
Full
May 2
Last Quarter
May 9
New

Hourly Weather History & Observations

Time (EDT) Temp. Heat Index Dew Point Humidity Pressure Visibility Wind Dir Wind Speed Gust Speed Precip Events Conditions
12:15 AM 66.2 °F - 62.6 °F 88% 30.15 in 10.0 mi South 4.6 mph - N/A   Clear
12:35 AM 66.2 °F - 62.6 °F 88% 30.15 in 10.0 mi SSE 4.6 mph - N/A   Clear
12:55 AM 66.2 °F - 62.6 °F 88% 30.15 in 10.0 mi Calm Calm - N/A   Clear
1:15 AM 66.2 °F - 62.6 °F 88% 30.15 in 10.0 mi Calm Calm - N/A   Clear
1:35 AM 64.4 °F - 62.6 °F 94% 30.14 in 10.0 mi Calm Calm - N/A   Clear
1:55 AM 64.4 °F - 62.6 °F 94% 30.14 in 10.0 mi Calm Calm - N/A   Clear
2:15 AM 64.4 °F - 62.6 °F 94% 30.14 in 10.0 mi Calm Calm - N/A   Clear
2:35 AM 64.4 °F - 62.6 °F 94% 30.13 in 10.0 mi Calm Calm - N/A   Clear
2:55 AM 64.4 °F - 60.8 °F 88% 30.13 in 10.0 mi Calm Calm - N/A   Clear
3:15 AM 62.6 °F - 60.8 °F 94% 30.13 in 10.0 mi Calm Calm - N/A   Clear
3:35 AM 60.8 °F - 60.8 °F 100% 30.13 in 9.0 mi Calm Calm - N/A   Clear
3:55 AM 60.8 °F - 59.0 °F 94% 30.13 in 4.0 mi Calm Calm - N/A   Clear
4:15 AM 59.0 °F - 59.0 °F 100% 30.13 in 7.0 mi Calm Calm - N/A   Clear
4:35 AM 59.0 °F - 57.2 °F 94% 30.12 in 5.0 mi Calm Calm - N/A   Clear
5:15 AM 57.2 °F - 57.2 °F 100% 30.13 in 1.8 mi Calm Calm - N/A   Clear
5:35 AM 57.2 °F - 57.2 °F 100% 30.13 in 1.5 mi Calm Calm - N/A   Clear
5:55 AM 55.4 °F - 55.4 °F 100% 30.13 in 9.0 mi Calm Calm - N/A   Clear
6:15 AM 55.4 °F - 55.4 °F 100% 30.13 in 5.0 mi Calm Calm - N/A   Clear
6:35 AM 55.4 °F - 55.4 °F 100% 30.14 in 10.0 mi Calm Calm - N/A   Clear
6:55 AM 55.4 °F - 55.4 °F 100% 30.14 in 10.0 mi Calm Calm - N/A   Clear
7:15 AM 55.4 °F - 55.4 °F 100% 30.15 in 0.2 mi Calm Calm - N/A Fog Fog
7:35 AM 55.4 °F - 55.4 °F 100% 30.15 in 3.0 mi Calm Calm - N/A   Clear
7:55 AM 55.4 °F - 55.4 °F 100% 30.15 in 6.0 mi Calm Calm - N/A   Clear
8:15 AM 57.2 °F - 57.2 °F 100% 30.15 in 9.0 mi Calm Calm - N/A   Clear
8:35 AM 60.8 °F - 60.8 °F 100% 30.16 in 10.0 mi Calm Calm - N/A   Clear
8:55 AM 64.4 °F - 62.6 °F 94% 30.16 in 10.0 mi Calm Calm - N/A   Clear
9:15 AM 66.2 °F - 62.6 °F 88% 30.16 in 10.0 mi South 4.6 mph - N/A   Clear
9:35 AM 69.8 °F - 62.6 °F 78% 30.17 in 10.0 mi SSW 6.9 mph - N/A   Clear
9:55 AM 71.6 °F - 62.6 °F 73% 30.17 in 10.0 mi SSW 6.9 mph - N/A   Clear
10:15 AM 73.4 °F - 62.6 °F 69% 30.18 in 10.0 mi SSW 12.7 mph 17.3 mph N/A   Clear
10:35 AM 73.4 °F - 62.6 °F 69% 30.17 in 10.0 mi SSW 10.4 mph 17.3 mph N/A   Clear
10:55 AM 75.2 °F - 60.8 °F 61% 30.17 in 10.0 mi SW 9.2 mph - N/A   Clear
11:15 AM 75.2 °F - 60.8 °F 61% 30.18 in 10.0 mi South 9.2 mph - N/A   Partly Cloudy
11:35 AM 75.2 °F - 60.8 °F 61% 30.17 in 10.0 mi SSW 6.9 mph - N/A   Clear
11:55 AM 77.0 °F - 60.8 °F 57% 30.17 in 10.0 mi SW 6.9 mph - N/A   Clear
12:15 PM 78.8 °F - 60.8 °F 54% 30.17 in 10.0 mi SSW 6.9 mph - N/A   Partly Cloudy
12:35 PM 78.8 °F - 60.8 °F 54% 30.16 in 10.0 mi South 5.8 mph - N/A   Clear
12:55 PM 78.8 °F - 60.8 °F 54% 30.15 in 10.0 mi South 4.6 mph - N/A   Clear
1:15 PM 80.6 °F 81.5 °F 60.8 °F 51% 30.13 in 10.0 mi SE 6.9 mph - N/A   Clear
1:35 PM 80.6 °F 81.5 °F 60.8 °F 51% 30.13 in 10.0 mi SSW 4.6 mph - N/A   Partly Cloudy
1:55 PM 80.6 °F 81.5 °F 60.8 °F 51% 30.11 in 10.0 mi SSE 5.8 mph - N/A   Scattered Clouds
2:15 PM 80.6 °F 81.1 °F 59.0 °F 48% 30.11 in 10.0 mi SSW 5.8 mph 17.3 mph N/A   Partly Cloudy
2:35 PM 82.4 °F 82.9 °F 60.8 °F 48% 30.10 in 10.0 mi Calm Calm - N/A   Clear
2:55 PM 82.4 °F 82.9 °F 60.8 °F 48% 30.09 in 10.0 mi SSW 10.4 mph - N/A   Clear
3:15 PM 82.4 °F 82.5 °F 59.0 °F 45% 30.09 in 10.0 mi SE 8.1 mph - N/A   Clear
3:35 PM 82.4 °F 82.5 °F 59.0 °F 45% 30.07 in 10.0 mi SSE 4.6 mph - N/A   Clear
3:55 PM 82.4 °F 82.0 °F 57.2 °F 42% 30.07 in 10.0 mi ESE 10.4 mph 18.4 mph N/A   Clear
4:15 PM 82.4 °F 81.7 °F 55.4 °F 39% 30.06 in 10.0 mi SE 8.1 mph - N/A   Clear
4:55 PM 82.4 °F 81.7 °F 55.4 °F 39% 30.04 in 10.0 mi ESE 9.2 mph - N/A   Clear
5:15 PM 84.2 °F 83.0 °F 55.4 °F 37% 30.04 in 10.0 mi SE 11.5 mph - N/A   Clear
5:35 PM 84.2 °F 83.0 °F 55.4 °F 37% 30.03 in 10.0 mi SSE 5.8 mph - N/A   Clear
6:15 PM 82.4 °F 81.7 °F 55.4 °F 39% 30.03 in 10.0 mi SSE 6.9 mph - N/A   Clear
6:35 PM 82.4 °F 81.7 °F 55.4 °F 39% 30.02 in 10.0 mi SSE 6.9 mph - N/A   Clear
6:55 PM 82.4 °F 81.7 °F 55.4 °F 39% 30.02 in 10.0 mi SSE 4.6 mph - N/A   Clear
7:35 PM 80.6 °F 80.8 °F 57.2 °F 45% 30.02 in 10.0 mi SE 9.2 mph - N/A   Clear
7:55 PM 78.8 °F - 57.2 °F 47% 30.03 in 10.0 mi SE 10.4 mph - N/A   Clear
8:15 PM 75.2 °F - 57.2 °F 53% 30.03 in 10.0 mi SSE 8.1 mph - N/A   Clear
8:35 PM 75.2 °F - 59.0 °F 57% 30.03 in 10.0 mi SSE 6.9 mph - N/A   Clear
8:55 PM 73.4 °F - 59.0 °F 61% 30.03 in 10.0 mi SE 6.9 mph - N/A   Clear
9:15 PM 71.6 °F - 59.0 °F 64% 30.03 in 10.0 mi SE 8.1 mph - N/A   Clear
9:35 PM 71.6 °F - 60.8 °F 69% 30.03 in 10.0 mi SSE 8.1 mph - N/A   Clear
9:55 PM 71.6 °F - 60.8 °F 69% 30.03 in 10.0 mi SSE 10.4 mph - N/A   Clear
10:15 PM 69.8 °F - 62.6 °F 78% 30.03 in 10.0 mi SSE 6.9 mph - N/A   Clear
10:35 PM 69.8 °F - 62.6 °F 78% 30.03 in 10.0 mi SSE 6.9 mph - N/A   Clear
10:55 PM 69.8 °F - 62.6 °F 78% 30.03 in 10.0 mi SSE 6.9 mph - N/A   Clear
11:15 PM 68.0 °F - 62.6 °F 83% 30.02 in 10.0 mi SSE 5.8 mph - N/A   Clear
11:35 PM 68.0 °F - 62.6 °F 83% 30.01 in 10.0 mi SSE 5.8 mph - N/A   Clear
11:55 PM 66.2 °F - 62.6 °F 88% 30.01 in 10.0 mi SSE 6.9 mph - N/A   Clear